Location: Maccacari
(45.1333°N, 11.1333°E)
Time: 12:04:51
(UTC+00:00)

SR - Pass Details

Date: 26 June 2021
Orbit: 577 x 878 km, 66.7° (Epoch: 24 July)

Event Time Altitude Azimuth Distance (km) Brightness Sun altitude
Rises 21:52:36 0° 331° (NNW) 3,304 ? -18.8°
Reaches altitude 10° 21:55:18 10° 339° (NNW) 2,322 ? -19.0°
Maximum altitude 22:00:14 38° 48° (NE) 1,098 ? -19.3°
Enters shadow 22:03:01 21° 104° (ESE) 1,562 ? -19.4°
